TimeMDT,TemperatureF,Dew PointF,Humidity,Sea Level PressureIn,VisibilityMPH,Wind Direction,Wind SpeedMPH,Gust SpeedMPH,PrecipitationIn,Events,Conditions,WindDirDegrees,DateUTC
12:53 AM,42.1,12.9,31,29.80,10.0,ENE,4.6,-,N/A,,Clear,60,2012-10-03 06:53:00
1:53 AM,41.0,12.9,32,29.80,10.0,Calm,Calm,-,N/A,,Clear,0,2012-10-03 07:53:00
2:53 AM,41.0,14.0,33,29.81,10.0,NE,3.5,-,N/A,,Clear,40,2012-10-03 08:53:00
3:53 AM,41.0,17.1,38,29.81,10.0,East,3.5,-,N/A,,Clear,80,2012-10-03 09:53:00
4:53 AM,37.9,14.0,38,29.85,10.0,Calm,Calm,-,N/A,,Clear,0,2012-10-03 10:53:00
5:53 AM,37.9,14.0,38,29.88,10.0,ENE,4.6,-,N/A,,Clear,60,2012-10-03 11:53:00
6:53 AM,37.9,16.0,41,29.91,10.0,Calm,Calm,-,N/A,,Clear,0,2012-10-03 12:53:00
7:53 AM,37.9,16.0,41,29.97,10.0,Calm,Calm,-,N/A,,Clear,0,2012-10-03 13:53:00
8:53 AM,52.0,21.0,30,29.93,10.0,Calm,Calm,-,N/A,,Clear,0,2012-10-03 14:53:00
9:53 AM,61.0,24.1,24,29.94,10.0,West,3.5,-,N/A,,Clear,280,2012-10-03 15:53:00
10:53 AM,69.1,24.1,18,29.90,10.0,West,5.8,-,N/A,,Clear,270,2012-10-03 16:53:00
11:53 AM,75.0,23.0,14,29.86,10.0,WSW,12.7,18.4,N/A,,Clear,240,2012-10-03 17:53:00
12:53 PM,79.0,23.0,13,29.83,10.0,WSW,11.5,18.4,N/A,,Clear,240,2012-10-03 18:53:00
1:53 PM,81.0,19.9,10,29.81,10.0,WSW,13.8,26.5,N/A,,Clear,240,2012-10-03 19:53:00
2:53 PM,82.0,19.9,10,29.78,10.0,WNW,21.9,34.5,N/A,,Clear,290,2012-10-03 20:53:00
3:53 PM,82.0,19.0,10,29.77,10.0,WNW,17.3,24.2,N/A,,Clear,300,2012-10-03 21:53:00
4:53 PM,81.0,19.0,10,29.81,10.0,West,18.4,24.2,N/A,,Clear,260,2012-10-03 22:53:00
5:53 PM,78.1,18.0,10,29.85,10.0,West,20.7,27.6,N/A,,Clear,270,2012-10-03 23:53:00
6:53 PM,73.9,17.1,12,29.88,10.0,West,12.7,20.7,N/A,,Clear,270,2012-10-04 00:53:00
7:53 PM,66.0,17.1,15,29.95,10.0,SW,4.6,-,N/A,,Clear,230,2012-10-04 01:53:00
8:53 PM,63.0,17.1,17,29.88,10.0,SW,4.6,-,N/A,,Clear,230,2012-10-04 02:53:00
9:53 PM,64.9,19.0,17,29.83,10.0,SW,9.2,-,N/A,,Clear,220,2012-10-04 03:53:00
10:53 PM,62.1,21.9,21,29.81,10.0,SW,9.2,-,N/A,,Clear,220,2012-10-04 04:53:00
11:53 PM,60.1,23.0,24,29.80,10.0,South,8.1,-,N/A,,Clear,190,2012-10-04 05:53:00